Time,TemperatureF,DewpointF,PressureIn,WindDirection,WindDirectionDegrees,WindSpeedMPH,WindSpeedGustMPH,Humidity,HourlyPrecipIn,Conditions,Clouds,dailyrainin,SolarRadiationWatts/m^2,SoftwareType,DateUTC
2013-02-10 00:00:00,33.4,31.3,29.83,ESE,122,11.0,11.0,92,0.00,,,0.03,0,Wunderground v.1.15,2013-02-10 06:00:00,
2013-02-10 00:10:00,33.5,31.4,29.83,ESE,106,10.0,10.0,92,0.00,,,0.03,0,Wunderground v.1.15,2013-02-10 06:10:00,
2013-02-10 00:20:00,33.6,31.5,29.83,ESE,120,10.0,10.0,92,0.00,,,0.00,0,Wunderground v.1.15,2013-02-10 06:20:00,
2013-02-10 00:30:00,33.5,31.4,29.83,SE,134,8.0,8.0,92,0.00,,,0.00,0,Wunderground v.1.15,2013-02-10 06:30:00,
2013-02-10 00:40:00,33.4,31.3,29.82,ESE,120,10.0,10.0,92,0.00,,,0.00,0,Wunderground v.1.15,2013-02-10 06:40:00,
2013-02-10 00:50:00,33.3,31.5,29.82,South,178,9.0,9.0,93,0.00,,,0.00,0,Wunderground v.1.15,2013-02-10 06:50:00,
2013-02-10 01:00:00,33.3,31.5,29.82,SE,141,8.0,8.0,93,0.00,,,0.00,0,Wunderground v.1.15,2013-02-10 07:00:00,
2013-02-10 01:10:00,33.3,31.5,29.81,SE,140,9.0,9.0,93,0.00,,,0.00,0,Wunderground v.1.15,2013-02-10 07:10:00,
2013-02-10 01:20:00,33.3,31.5,29.80,ESE,105,11.0,11.0,93,0.00,,,0.00,0,Wunderground v.1.15,2013-02-10 07:20:00,
2013-02-10 01:30:00,33.3,31.5,29.79,SE,142,11.0,14.0,93,0.00,,,0.00,0,Wunderground v.1.15,2013-02-10 07:30:00,
2013-02-10 01:40:00,33.2,31.4,29.78,ESE,111,12.0,13.0,93,0.00,,,0.00,0,Wunderground v.1.15,2013-02-10 07:40:00,
2013-02-10 01:50:00,33.1,31.3,29.78,SE,142,12.0,12.0,93,0.00,,,0.00,0,Wunderground v.1.15,2013-02-10 07:50:00,
2013-02-10 02:00:00,33.1,31.3,29.78,ESE,121,11.0,12.0,93,0.00,,,0.00,0,Wunderground v.1.15,2013-02-10 08:00:00,
2013-02-10 02:10:00,33.1,31.6,29.77,ESE,122,11.0,14.0,94,0.00,,,0.00,0,Wunderground v.1.15,2013-02-10 08:10:00,
2013-02-10 02:20:00,33.2,31.7,29.77,SE,134,12.0,12.0,94,0.00,,,0.01,0,Wunderground v.1.15,2013-02-10 08:20:00,
2013-02-10 02:30:00,33.2,31.7,29.76,ESE,120,14.0,15.0,94,0.00,,,0.01,0,Wunderground v.1.15,2013-02-10 08:30:00,
2013-02-10 02:40:00,33.3,31.8,29.77,ESE,117,12.0,12.0,94,0.00,,,0.01,0,Wunderground v.1.15,2013-02-10 08:40:00,
2013-02-10 02:50:00,33.3,31.8,29.75,ESE,121,12.0,15.0,94,0.00,,,0.01,0,Wunderground v.1.15,2013-02-10 08:50:00,
2013-02-10 03:00:00,33.2,31.7,29.69,SE,128,12.0,12.0,94,0.00,,,0.01,0,Wunderground v.1.15,2013-02-10 09:00:00,
2013-02-10 03:10:00,33.1,31.6,29.67,ESE,108,11.0,17.0,94,0.00,,,0.01,0,Wunderground v.1.15,2013-02-10 09:10:00,
2013-02-10 03:20:00,33.1,31.6,29.68,SE,131,15.0,15.0,94,0.00,,,0.01,0,Wunderground v.1.15,2013-02-10 09:20:00,
2013-02-10 03:30:00,33.2,31.7,29.68,SE,130,12.0,16.0,94,0.00,,,0.01,0,Wunderground v.1.15,2013-02-10 09:30:00,
2013-02-10 03:40:00,33.2,31.7,29.67,SE,145,14.0,19.0,94,0.00,,,0.01,0,Wunderground v.1.15,2013-02-10 09:40:00,
2013-02-10 03:50:00,33.2,31.7,29.67,ESE,114,14.0,14.0,94,0.00,,,0.01,0,Wunderground v.1.15,2013-02-10 09:50:00,
2013-02-10 04:00:00,33.4,31.9,29.65,SE,128,14.0,14.0,94,0.00,,,0.01,0,Wunderground v.1.15,2013-02-10 10:00:00,
2013-02-10 04:10:00,33.5,32.0,29.64,SE,142,14.0,14.0,94,0.00,,,0.01,0,Wunderground v.1.15,2013-02-10 10:10:00,
2013-02-10 04:20:00,33.6,32.1,29.64,ESE,111,14.0,15.0,94,0.00,,,0.01,0,Wunderground v.1.15,2013-02-10 10:20:00,
2013-02-10 04:30:00,33.6,32.1,29.62,SE,136,16.0,16.0,94,0.00,,,0.01,0,Wunderground v.1.15,2013-02-10 10:30:00,
2013-02-10 04:40:00,33.6,32.1,29.62,SSE,154,15.0,20.0,94,0.00,,,0.01,0,Wunderground v.1.15,2013-02-10 10:40:00,
2013-02-10 04:50:00,33.7,32.4,29.62,SE,140,14.0,14.0,95,0.00,,,0.01,0,Wunderground v.1.15,2013-02-10 10:50:00,
2013-02-10 05:00:00,33.7,32.4,29.58,SE,126,15.0,15.0,95,0.00,,,0.01,0,Wunderground v.1.15,2013-02-10 11:00:00,
2013-02-10 05:10:00,33.7,32.4,29.55,SE,132,12.0,14.0,95,0.16,,,0.04,0,Wunderground v.1.15,2013-02-10 11:10:00,
2013-02-10 05:20:00,33.7,32.4,29.55,SE,130,13.0,13.0,95,0.07,,,0.05,0,Wunderground v.1.15,2013-02-10 11:20:00,
2013-02-10 05:30:00,33.6,32.3,29.54,SE,130,14.0,14.0,95,0.04,,,0.05,0,Wunderground v.1.15,2013-02-10 11:30:00,
2013-02-10 05:40:00,33.7,32.4,29.56,SE,142,14.0,21.0,95,0.00,,,0.05,0,Wunderground v.1.15,2013-02-10 11:40:00,
2013-02-10 05:50:00,33.9,32.6,29.56,SE,130,16.0,16.0,95,0.00,,,0.05,0,Wunderground v.1.15,2013-02-10 11:50:00,
2013-02-10 06:00:00,34.0,32.7,29.53,SE,142,15.0,15.0,95,0.22,,,0.07,0,Wunderground v.1.15,2013-02-10 12:00:00,
2013-02-10 06:10:00,34.0,32.7,29.49,SE,125,14.0,15.0,95,0.05,,,0.07,0,Wunderground v.1.15,2013-02-10 12:10:00,
2013-02-10 06:20:00,34.0,32.7,29.51,ESE,111,14.0,17.0,95,0.00,,,0.08,0,Wunderground v.1.15,2013-02-10 12:20:00,
2013-02-10 06:30:00,34.0,32.7,29.50,SE,142,14.0,14.0,95,0.00,,,0.08,0,Wunderground v.1.15,2013-02-10 12:30:00,
2013-02-10 06:40:00,34.0,32.7,29.49,SSE,156,13.0,24.0,95,0.00,,,0.08,0,Wunderground v.1.15,2013-02-10 12:40:00,
2013-02-10 06:50:00,34.1,32.8,29.49,SE,143,14.0,14.0,95,0.00,,,0.08,0,Wunderground v.1.15,2013-02-10 12:50:00,
2013-02-10 07:00:00,34.2,32.9,29.50,ESE,114,14.0,14.0,95,0.00,,,0.08,0,Wunderground v.1.15,2013-02-10 13:00:00,
2013-02-10 07:10:00,34.3,33.0,29.49,ESE,122,14.0,16.0,95,0.00,,,0.08,0,Wunderground v.1.15,2013-02-10 13:10:00,
2013-02-10 07:20:00,34.4,33.1,29.48,ESE,123,12.0,12.0,95,0.00,,,0.08,0,Wunderground v.1.15,2013-02-10 13:20:00,
2013-02-10 07:30:00,34.5,33.2,29.48,SE,138,14.0,17.0,95,0.00,,,0.08,0,Wunderground v.1.15,2013-02-10 13:30:00,
2013-02-10 07:40:00,34.7,33.4,29.48,SE,133,13.0,20.0,95,0.00,,,0.08,0,Wunderground v.1.15,2013-02-10 13:40:00,
2013-02-10 07:50:00,35.0,33.7,29.48,SE,134,13.0,13.0,95,0.00,,,0.08,0,Wunderground v.1.15,2013-02-10 13:50:00,
2013-02-10 08:00:00,35.2,33.9,29.48,SSE,150,11.0,11.0,95,0.00,,,0.08,0,Wunderground v.1.15,2013-02-10 14:00:00,
2013-02-10 08:10:00,35.4,34.1,29.48,SE,137,11.0,11.0,95,0.00,,,0.09,7,Wunderground v.1.15,2013-02-10 14:10:00,
2013-02-10 08:20:00,35.6,34.3,29.48,SE,134,11.0,11.0,95,0.00,,,0.09,11,Wunderground v.1.15,2013-02-10 14:20:00,
2013-02-10 08:30:00,35.8,34.5,29.48,SSE,157,12.0,14.0,95,0.00,,,0.10,11,Wunderground v.1.15,2013-02-10 14:30:00,
2013-02-10 08:40:00,35.9,34.6,29.47,SSE,148,13.0,13.0,95,0.00,,,0.10,14,Wunderground v.1.15,2013-02-10 14:40:00,
2013-02-10 08:50:00,35.9,34.6,29.47,SSE,153,12.0,14.0,95,0.00,,,0.10,18,Wunderground v.1.15,2013-02-10 14:50:00,
2013-02-10 09:00:00,36.0,34.7,29.46,SE,140,12.0,12.0,95,0.00,,,0.10,12,Wunderground v.1.15,2013-02-10 15:00:00,
2013-02-10 09:10:00,36.0,34.7,29.45,SE,136,12.0,12.0,95,0.00,,,0.10,19,Wunderground v.1.15,2013-02-10 15:10:00,
2013-02-10 09:20:00,36.1,34.8,29.44,SE,143,11.0,11.0,95,0.00,,,0.10,30,Wunderground v.1.15,2013-02-10 15:20:00,
2013-02-10 09:30:00,36.3,35.0,29.43,SSE,154,10.0,10.0,95,0.00,,,0.10,25,Wunderground v.1.15,2013-02-10 15:30:00,
2013-02-10 09:40:00,36.5,35.2,29.43,SE,133,11.0,12.0,95,0.00,,,0.10,35,Wunderground v.1.15,2013-02-10 15:40:00,
2013-02-10 09:50:00,36.7,35.4,29.41,ESE,121,10.0,10.0,95,0.00,,,0.10,76,Wunderground v.1.15,2013-02-10 15:50:00,
2013-02-10 10:00:00,36.9,35.6,29.40,ESE,123,10.0,14.0,95,0.00,,,0.10,97,Wunderground v.1.15,2013-02-10 16:00:00,
2013-02-10 10:10:00,37.2,35.9,29.38,SE,138,12.0,13.0,95,0.00,,,0.10,109,Wunderground v.1.15,2013-02-10 16:10:00,
2013-02-10 10:20:00,37.7,36.4,29.38,SE,140,11.0,13.0,95,0.00,,,0.10,121,Wunderground v.1.15,2013-02-10 16:20:00,
2013-02-10 10:30:00,38.0,36.7,29.37,SE,126,12.0,12.0,95,0.00,,,0.10,102,Wunderground v.1.15,2013-02-10 16:30:00,
2013-02-10 10:40:00,38.5,37.2,29.37,SE,124,12.0,18.0,95,0.00,,,0.10,137,Wunderground v.1.15,2013-02-10 16:40:00,
2013-02-10 10:50:00,38.8,37.8,29.36,SE,131,13.0,13.0,96,0.00,,,0.10,67,Wunderground v.1.15,2013-02-10 16:50:00,
2013-02-10 11:00:00,38.7,37.4,29.36,SE,130,13.0,13.0,95,0.00,,,0.10,63,Wunderground v.1.15,2013-02-10 17:00:00,
2013-02-10 11:10:00,39.0,37.7,29.35,SE,124,11.0,14.0,95,0.00,,,0.10,84,Wunderground v.1.15,2013-02-10 17:10:00,
2013-02-10 11:20:00,39.7,38.4,29.35,SE,137,11.0,11.0,95,0.00,,,0.10,176,Wunderground v.1.15,2013-02-10 17:20:00,
2013-02-10 11:30:00,40.7,39.4,29.34,ESE,120,12.0,14.0,95,0.00,,,0.10,116,Wunderground v.1.15,2013-02-10 17:30:00,
2013-02-10 11:40:00,41.1,39.8,29.33,SSE,167,11.0,11.0,95,0.00,,,0.10,151,Wunderground v.1.15,2013-02-10 17:40:00,
2013-02-10 11:50:00,41.0,39.4,29.32,ESE,117,9.0,12.0,94,0.00,,,0.10,104,Wunderground v.1.15,2013-02-10 17:50:00,
2013-02-10 12:00:00,40.8,39.2,29.32,SE,128,10.0,10.0,94,0.00,,,0.10,60,Wunderground v.1.15,2013-02-10 18:00:00,
2013-02-10 12:10:00,40.9,39.3,29.31,SE,131,9.0,10.0,94,0.00,,,0.10,47,Wunderground v.1.15,2013-02-10 18:10:00,
2013-02-10 12:30:00,41.0,39.4,29.30,ESE,123,10.0,11.0,94,0.00,,,0.10,40,Wunderground v.1.15,2013-02-10 18:30:00,
2013-02-10 12:40:00,41.2,39.6,29.28,ESE,112,10.0,10.0,94,0.00,,,0.10,84,Wunderground v.1.15,2013-02-10 18:40:00,
2013-02-10 12:50:00,41.2,39.6,29.28,ESE,108,9.0,9.0,94,0.00,,,0.10,23,Wunderground v.1.15,2013-02-10 18:50:00,
2013-02-10 13:00:00,41.1,39.8,29.27,SE,133,7.0,11.0,95,0.00,,,0.10,14,Wunderground v.1.15,2013-02-10 19:00:00,
2013-02-10 13:10:00,41.8,40.5,29.28,SSW,205,9.0,9.0,95,0.00,,,0.11,33,Wunderground v.1.15,2013-02-10 19:10:00,
2013-02-10 13:20:00,42.3,38.4,29.28,SSW,198,11.0,17.0,86,0.00,,,0.11,120,Wunderground v.1.15,2013-02-10 19:20:00,
2013-02-10 13:30:00,42.9,38.4,29.28,SSW,207,16.0,16.0,84,0.00,,,0.11,151,Wunderground v.1.15,2013-02-10 19:30:00,
2013-02-10 13:40:00,42.4,37.9,29.28,SW,224,14.0,14.0,84,0.00,,,0.11,250,Wunderground v.1.15,2013-02-10 19:40:00,
2013-02-10 13:50:00,42.3,37.5,29.28,SW,228,16.0,21.0,83,0.00,,,0.11,318,Wunderground v.1.15,2013-02-10 19:50:00,
2013-02-10 14:00:00,41.5,36.4,29.28,SSW,192,17.0,17.0,82,0.00,,,0.11,62,Wunderground v.1.15,2013-02-10 20:00:00,
2013-02-10 14:10:00,40.7,35.6,29.28,SSW,211,15.0,22.0,82,0.00,,,0.11,42,Wunderground v.1.15,2013-02-10 20:10:00,
2013-02-10 14:20:00,40.1,35.4,29.29,South,187,15.0,16.0,83,0.00,,,0.11,51,Wunderground v.1.15,2013-02-10 20:20:00,
2013-02-10 14:30:00,39.8,34.8,29.29,SSW,203,16.0,16.0,82,0.00,,,0.11,58,Wunderground v.1.15,2013-02-10 20:30:00,
2013-02-10 14:40:00,39.6,34.6,29.29,WSW,247,15.0,16.0,82,0.00,,,0.11,40,Wunderground v.1.15,2013-02-10 20:40:00,
2013-02-10 14:50:00,39.1,33.8,29.29,SSW,196,15.0,21.0,81,0.00,,,0.11,32,Wunderground v.1.15,2013-02-10 20:50:00,
2013-02-10 15:00:00,38.1,33.4,29.30,SSW,200,17.0,26.0,83,0.00,,,0.11,21,Wunderground v.1.15,2013-02-10 21:00:00,
2013-02-10 15:10:00,37.3,33.5,29.30,SW,218,16.0,16.0,86,0.00,,,0.11,16,Wunderground v.1.15,2013-02-10 21:10:00,
2013-02-10 15:20:00,36.8,33.3,29.31,SW,221,15.0,20.0,87,0.00,,,0.11,19,Wunderground v.1.15,2013-02-10 21:20:00,
2013-02-10 15:30:00,36.6,33.4,29.31,SSW,202,12.0,12.0,88,0.00,,,0.11,23,Wunderground v.1.15,2013-02-10 21:30:00,
2013-02-10 15:40:00,36.3,33.4,29.31,SSW,211,13.0,13.0,89,0.00,,,0.11,30,Wunderground v.1.15,2013-02-10 21:40:00,
2013-02-10 15:50:00,35.9,33.3,29.31,SW,221,10.0,11.0,90,0.00,,,0.11,26,Wunderground v.1.15,2013-02-10 21:50:00,
2013-02-10 16:00:00,35.7,33.3,29.31,SSW,196,10.0,10.0,91,0.00,,,0.11,19,Wunderground v.1.15,2013-02-10 22:00:00,
2013-02-10 16:10:00,35.5,33.4,29.31,SW,214,9.0,9.0,92,0.00,,,0.11,18,Wunderground v.1.15,2013-02-10 22:10:00,
2013-02-10 16:20:00,35.5,33.4,29.31,SSW,211,9.0,9.0,92,0.00,,,0.11,19,Wunderground v.1.15,2013-02-10 22:20:00,
2013-02-10 16:30:00,35.5,33.4,29.31,SSW,200,9.0,9.0,92,0.00,,,0.11,7,Wunderground v.1.15,2013-02-10 22:30:00,
2013-02-10 16:40:00,35.7,33.6,29.31,SW,229,9.0,10.0,92,0.00,,,0.11,16,Wunderground v.1.15,2013-02-10 22:40:00,
2013-02-10 16:50:00,35.8,33.7,29.31,SW,221,9.0,9.0,92,0.00,,,0.11,7,Wunderground v.1.15,2013-02-10 22:50:00,
2013-02-10 17:00:00,35.8,33.7,29.31,SW,214,10.0,12.0,92,0.00,,,0.11,7,Wunderground v.1.15,2013-02-10 23:00:00,
2013-02-10 17:10:00,35.9,34.1,29.32,SSW,207,11.0,11.0,93,0.00,,,0.11,7,Wunderground v.1.15,2013-02-10 23:10:00,
2013-02-10 17:20:00,36.2,34.4,29.32,SW,225,13.0,13.0,93,0.00,,,0.11,5,Wunderground v.1.15,2013-02-10 23:20:00,
2013-02-10 17:30:00,36.4,34.3,29.32,WSW,246,14.0,14.0,92,0.00,,,0.11,0,Wunderground v.1.15,2013-02-10 23:30:00,
2013-02-10 17:40:00,36.5,34.4,29.33,West,263,13.0,13.0,92,0.00,,,0.11,0,Wunderground v.1.15,2013-02-10 23:40:00,
2013-02-10 17:50:00,36.1,33.7,29.34,WNW,301,14.0,19.0,91,0.00,,,0.11,0,Wunderground v.1.15,2013-02-10 23:50:00,
2013-02-10 18:00:00,35.6,33.0,29.35,West,273,17.0,17.0,90,0.00,,,0.11,0,Wunderground v.1.15,2013-02-11 00:00:00,
2013-02-10 18:10:00,35.3,32.7,29.36,West,278,15.0,15.0,90,0.00,,,0.11,0,Wunderground v.1.15,2013-02-11 00:10:00,
2013-02-10 18:20:00,35.0,32.4,29.37,West,259,15.0,15.0,90,0.00,,,0.11,0,Wunderground v.1.15,2013-02-11 00:20:00,
2013-02-10 18:30:00,34.5,31.9,29.38,WSW,253,14.0,15.0,90,0.00,,,0.11,0,Wunderground v.1.15,2013-02-11 00:30:00,
2013-02-10 18:40:00,34.0,31.6,29.39,West,280,13.0,13.0,91,0.00,,,0.11,0,Wunderground v.1.15,2013-02-11 00:40:00,
2013-02-10 18:50:00,33.4,31.3,29.40,West,279,13.0,13.0,92,0.00,,,0.11,0,Wunderground v.1.15,2013-02-11 00:50:00,
2013-02-10 19:00:00,32.9,30.8,29.41,West,261,15.0,16.0,92,0.00,,,0.11,0,Wunderground v.1.15,2013-02-11 01:00:00,
2013-02-10 19:10:00,32.5,30.4,29.41,WSW,255,15.0,15.0,92,0.00,,,0.11,0,Wunderground v.1.15,2013-02-11 01:10:00,
2013-02-10 19:20:00,31.9,29.8,29.42,West,278,18.0,18.0,92,0.00,,,0.11,0,Wunderground v.1.15,2013-02-11 01:20:00,
2013-02-10 19:30:00,31.6,29.8,29.43,WSW,258,16.0,25.0,93,0.00,,,0.11,0,Wunderground v.1.15,2013-02-11 01:30:00,
2013-02-10 19:40:00,31.3,29.5,29.43,WNW,290,17.0,17.0,93,0.00,,,0.11,0,Wunderground v.1.15,2013-02-11 01:40:00,
2013-02-10 19:50:00,31.2,29.1,29.44,West,268,16.0,16.0,92,0.00,,,0.11,0,Wunderground v.1.15,2013-02-11 01:50:00,
2013-02-10 20:00:00,31.1,28.8,29.45,West,277,17.0,29.0,91,0.00,,,0.11,0,Wunderground v.1.15,2013-02-11 02:00:00,
2013-02-10 20:10:00,30.9,28.3,29.45,West,267,20.0,20.0,90,0.00,,,0.11,0,Wunderground v.1.15,2013-02-11 02:10:00,
2013-02-10 20:20:00,30.8,28.2,29.47,SSW,213,18.0,18.0,90,0.00,,,0.11,0,Wunderground v.1.15,2013-02-11 02:20:00,
2013-02-10 20:30:00,30.7,27.6,29.47,West,279,19.0,21.0,88,0.00,,,0.11,0,Wunderground v.1.15,2013-02-11 02:30:00,
2013-02-10 20:40:00,30.6,27.2,29.48,West,279,21.0,23.0,87,0.00,,,0.11,0,Wunderground v.1.15,2013-02-11 02:40:00,
2013-02-10 20:50:00,30.5,27.1,29.49,WNW,294,19.0,19.0,87,0.00,,,0.11,0,Wunderground v.1.15,2013-02-11 02:50:00,
2013-02-10 21:00:00,30.5,26.8,29.50,WNW,289,18.0,28.0,86,0.00,,,0.11,0,Wunderground v.1.15,2013-02-11 03:00:00,
2013-02-10 21:10:00,30.5,26.5,29.50,West,270,21.0,21.0,85,0.00,,,0.11,0,Wunderground v.1.15,2013-02-11 03:10:00,
2013-02-10 21:20:00,30.5,26.5,29.51,WNW,286,20.0,20.0,85,0.00,,,0.11,0,Wunderground v.1.15,2013-02-11 03:20:00,
2013-02-10 21:30:00,30.6,26.6,29.52,NW,320,19.0,22.0,85,0.00,,,0.11,0,Wunderground v.1.15,2013-02-11 03:30:00,
2013-02-10 21:40:00,30.4,26.1,29.52,West,281,20.0,20.0,84,0.00,,,0.11,0,Wunderground v.1.15,2013-02-11 03:40:00,
2013-02-10 21:50:00,30.3,26.6,29.53,WNW,298,19.0,19.0,86,0.00,,,0.11,0,Wunderground v.1.15,2013-02-11 03:50:00,
2013-02-10 22:00:00,30.0,26.3,29.54,WNW,292,20.0,20.0,86,0.00,,,0.11,0,Wunderground v.1.15,2013-02-11 04:00:00,
2013-02-10 22:10:00,29.7,26.6,29.55,West,276,18.0,20.0,88,0.00,,,0.11,0,Wunderground v.1.15,2013-02-11 04:10:00,
2013-02-10 22:20:00,29.3,26.2,29.56,WNW,296,19.0,27.0,88,0.00,,,0.11,0,Wunderground v.1.15,2013-02-11 04:20:00,
2013-02-10 22:30:00,29.5,25.8,29.56,WNW,287,21.0,26.0,86,0.00,,,0.11,0,Wunderground v.1.15,2013-02-11 04:30:00,
2013-02-10 22:40:00,29.6,25.6,29.57,West,277,20.0,20.0,85,0.00,,,0.11,0,Wunderground v.1.15,2013-02-11 04:40:00,
2013-02-10 22:50:00,29.6,25.6,29.58,WNW,286,19.0,19.0,85,0.00,,,0.11,0,Wunderground v.1.15,2013-02-11 04:50:00,
2013-02-10 23:00:00,29.5,25.5,29.59,NW,311,20.0,21.0,85,0.00,,,0.11,0,Wunderground v.1.15,2013-02-11 05:00:00,
2013-02-10 23:10:00,29.4,25.4,29.60,West,271,19.0,28.0,85,0.00,,,0.11,0,Wunderground v.1.15,2013-02-11 05:10:00,
2013-02-10 23:20:00,29.3,25.4,29.60,WNW,284,20.0,20.0,85,0.00,,,0.11,0,Wunderground v.1.15,2013-02-11 05:20:00,
2013-02-10 23:30:00,29.3,25.4,29.61,WNW,298,20.0,23.0,85,0.00,,,0.11,0,Wunderground v.1.15,2013-02-11 05:30:00,
2013-02-10 23:40:00,29.3,25.4,29.62,WNW,286,20.0,20.0,85,0.00,,,0.11,0,Wunderground v.1.15,2013-02-11 05:40:00,
2013-02-10 23:50:00,29.2,25.3,29.63,West,265,17.0,18.0,85,0.00,,,0.11,0,Wunderground v.1.15,2013-02-11 05:50:00,